Theta_e
337 338 340 342 343 344 345 345 346 347 348 349 348 349 350 349 351 351 351 352 351 351 350 350 349 348 348 348 348 347 348 349 349 349 351 354 357 357 357 356 357 357 359 357 357 361 356 353 354 354 354 358 356 353 354 353 353 354 354 354 347 346 346 346 340 336 333 330 333 334 336 341 350 343 341 342 343 344 348 347 347 350 349 349 349
338 338 339 341 342 343 345 344 346 344 346 348 348 348 350 349 350 352 352 352 351 351 350 351 351 350 348 347 348 347 348 349 348 348 350 352 356 357 358 356 357 356 359 357 357 357 353 352 353 354 355 357 356 354 353 359 357 354 353 350 352 344 341 346 341 333 330 326 326 328 331 332 343 339 338 340 342 343 345 344 346 347 347 348 348
336 337 338 340 341 343 343 344 344 345 346 347 349 349 349 348 349 352 352 352 351 352 351 351 351 352 349 348 349 348 350 351 351 351 351 351 355 357 358 357 356 356 357 359 355 358 353 352 352 353 355 359 356 353 354 354 352 353 352 348 346 346 348 350 341 331 329 332 330 328 324 324 332 331 337 340 340 340 342 342 344 343 345 346 347
334 336 336 338 340 341 342 343 343 345 346 347 347 348 348 349 348 351 351 352 351 353 353 352 352 352 351 350 351 350 349 351 352 352 349 351 354 356 357 357 356 356 356 358 357 358 355 353 353 354 355 358 356 354 352 352 352 351 351 350 346 341 340 342 344 337 337 329 323 324 322 322 320 323 328 335 339 338 340 340 341 340 343 343 345
335 336 336 337 338 340 341 343 344 344 346 346 347 348 348 348 348 350 351 352 352 354 353 352 353 351 351 351 351 351 352 350 348 348 349 351 354 354 355 357 357 357 357 357 358 357 358 355 355 355 357 358 357 354 353 353 353 353 354 350 347 341 340 340 344 339 336 334 331 327 323 321 320 323 331 330 336 336 336 336 341 338 339 342 344
336 336 336 337 338 340 341 342 343 343 345 347 348 349 349 349 349 350 351 352 352 353 354 353 352 350 348 347 345 346 345 346 345 345 346 347 352 354 356 357 357 357 358 357 358 357 359 357 356 357 357 358 357 355 356 354 353 353 355 352 349 345 342 340 334 346 341 347 335 330 327 322 325 326 326 323 334 338 336 337 339 338 339 341 340
337 338 337 337 338 339 340 341 342 343 345 348 349 349 349 349 350 350 351 352 353 353 353 353 351 350 349 348 347 346 345 346 348 348 348 347 352 353 354 356 357 356 357 357 357 358 359 358 357 358 359 359 360 356 355 355 355 355 357 353 350 350 345 337 331 336 333 336 344 343 345 344 333 327 324 323 324 328 334 333 333 335 337 337 338
337 337 337 337 338 339 339 341 342 343 345 347 348 349 349 349 350 350 352 353 353 354 353 353 350 350 348 348 348 347 346 346 348 348 348 349 349 353 354 355 356 357 357 357 357 358 359 359 358 358 359 360 360 358 357 357 357 357 357 356 353 350 347 342 335 332 328 329 338 338 345 343 337 336 331 328 325 324 326 330 336 334 334 335 338
338 337 337 337 337 339 340 341 343 344 345 346 347 348 349 349 350 350 351 352 352 353 353 352 352 350 349 348 347 348 348 348 349 349 347 350 346 351 352 354 356 356 356 357 357 357 361 360 360 358 358 360 361 360 359 359 357 355 353 353 351 349 347 345 340 334 329 327 331 333 335 336 335 337 335 334 328 323 324 325 326 333 333 333 335
339 339 338 338 339 339 341 342 343 343 345 347 347 348 349 349 349 349 350 352 352 353 353 351 351 352 349 348 347 347 348 348 348 347 347 347 344 348 351 352 354 354 355 356 356 357 359 361 361 360 359 360 362 359 359 358 357 355 354 353 352 349 347 347 344 339 334 331 331 332 331 333 330 331 330 330 331 327 324 325 326 326 326 329 333
338 339 339 339 340 340 341 341 342 343 344 346 346 347 348 348 348 348 349 351 352 352 352 351 351 351 349 348 348 346 347 347 346 346 346 346 344 344 349 351 352 353 354 355 356 356 358 361 361 361 360 361 362 359 358 358 357 355 355 354 352 349 347 347 349 345 339 336 333 330 331 333 328 328 329 329 328 326 325 327 326 329 328 327 331
338 339 339 339 338 339 340 340 341 342 343 344 345 346 346 347 348 347 348 349 350 352 351 350 350 350 350 349 348 348 347 347 346 345 346 345 345 343 347 349 350 352 353 353 355 356 358 360 361 361 361 360 360 361 360 360 359 357 355 353 351 350 349 349 348 345 340 339 335 334 330 335 333 331 332 330 331 328 328 325 327 328 329 329 334
338 338 338 338 338 338 339 339 340 341 341 343 344 345 345 346 347 346 346 348 349 351 350 350 349 349 349 349 348 349 348 348 347 346 346 346 346 344 345 347 349 350 351 352 354 355 357 358 359 359 360 360 360 360 360 360 358 357 355 353 352 349 349 348 346 346 344 339 337 337 332 337 338 336 337 333 332 331 329 325 329 330 325 327 330
338 339 339 338 338 339 340 340 340 341 342 343 343 345 344 345 347 346 346 348 349 349 350 349 349 349 349 349 349 350 349 348 348 347 347 347 347 346 345 347 348 350 351 352 354 355 356 359 360 360 360 361 360 359 359 359 358 357 355 353 352 351 350 349 347 347 344 342 339 338 336 335 337 339 339 336 335 334 329 328 328 333 328 328 329
338 338 339 339 339 339 340 341 340 341 342 343 343 344 344 344 346 346 345 346 348 348 349 349 349 349 349 349 349 349 350 349 349 349 348 347 347 348 347 348 349 350 352 354 355 355 355 357 359 359 360 360 360 359 360 359 358 357 356 354 353 351 351 351 348 347 347 343 338 338 338 335 335 336 337 337 336 337 333 331 330 326 326 327 327
338 338 338 339 339 339 340 341 342 342 343 343 343 344 344 344 346 346 346 346 347 349 348 348 348 349 349 349 349 350 351 351 349 349 349 348 348 348 349 349 351 352 353 354 355 355 355 355 359 359 359 360 360 359 358 358 357 356 355 354 353 354 352 351 350 348 347 346 342 339 338 337 337 336 338 336 336 337 335 334 332 328 324 321 324
337 338 338 338 339 340 341 342 342 343 343 343 343 344 345 345 345 346 346 346 347 349 348 348 348 348 349 349 349 349 350 350 350 349 349 350 349 349 350 351 352 353 353 355 355 355 355 355 356 358 359 359 359 360 359 358 357 357 355 354 353 353 352 351 351 349 348 348 344 340 339 338 337 338 338 338 336 336 336 335 334 331 328 324 321
338 338 339 339 339 340 341 342 343 343 344 344 345 345 346 346 346 346 347 346 347 348 349 349 348 348 348 349 350 350 350 350 351 350 350 351 350 350 349 351 352 354 355 356 356 355 355 358 355 356 358 359 359 359 359 359 358 357 355 354 355 354 352 351 352 351 349 348 347 342 340 338 339 339 339 341 337 335 335 335 334 332 331 328 325
337 338 338 339 339 340 340 341 344 344 345 345 346 347 347 347 347 347 347 348 348 349 350 351 350 349 349 350 350 351 351 351 352 352 351 351 351 351 350 350 353 354 355 356 355 355 355 355 355 355 356 357 358 359 359 358 358 357 356 354 354 353 352 351 351 352 350 349 347 345 341 340 340 339 340 340 342 336 335 334 334 334 333 330 328
337 338 338 339 340 340 341 341 342 344 345 346 347 347 347 348 348 348 348 349 349 348 350 350 351 350 350 350 351 352 352 352 352 352 351 351 352 352 351 351 351 355 355 356 356 356 355 354 355 355 356 356 357 358 358 358 358 357 357 355 354 353 352 351 351 352 352 350 348 346 344 342 340 339 339 340 340 340 338 337 336 335 334 333 332
337 338 338 339 340 341 341 342 343 345 346 347 348 347 348 348 348 348 347 348 349 349 349 350 351 351 351 350 350 351 352 353 353 353 352 351 352 353 353 352 352 352 356 355 356 356 355 355 354 355 355 355 355 356 357 357 356 356 356 356 355 353 352 351 351 351 352 351 349 347 346 345 343 340 339 339 339 340 339 339 338 336 334 333 333
337 338 339 340 340 341 342 342 343 345 346 346 348 348 348 348 349 349 349 348 349 349 350 350 351 351 351 351 351 352 353 353 352 353 352 352 352 352 354 354 353 353 354 356 355 356 356 355 354 354 355 355 356 355 356 356 355 355 355 356 355 354 352 351 351 350 351 352 350 348 347 346 344 342 341 339 339 339 339 337 337 337 335 335 335
336 337 339 340 340 341 341 341 342 344 346 346 347 348 348 348 349 349 349 349 350 350 351 351 351 351 351 352 352 352 352 352 352 352 352 353 352 351 352 354 355 354 355 355 356 355 355 355 354 354 354 354 355 355 356 356 355 355 355 355 356 355 353 352 351 351 351 351 350 349 348 347 346 343 342 341 340 339 340 338 337 338 336 336 336
336 337 338 340 341 341 341 340 341 343 345 346 347 348 348 349 349 350 349 350 350 351 352 351 351 351 351 352 352 352 352 352 352 353 352 353 353 353 352 351 354 356 356 356 356 356 356 355 354 354 354 354 354 355 355 355 355 355 355 355 355 355 354 354 353 352 351 351 350 349 349 348 346 344 342 341 340 339 339 339 337 337 337 336 337
334 335 336 338 340 340 340 340 341 342 344 346 347 348 349 349 350 350 350 351 351 352 352 352 352 351 351 351 351 352 352 352 352 353 353 353 353 353 352 351 351 352 355 356 356 356 356 356 355 354 354 354 354 354 354 355 355 356 355 355 355 355 355 355 354 353 354 352 351 350 350 349 347 345 344 342 341 339 339 339 338 337 337 337 338
332 334 334 335 338 340 340 340 341 342 343 345 346 348 349 350 350 352 351 352 352 352 352 352 352 351 351 351 351 352 352 352 352 352 353 353 353 353 352 352 351 350 351 354 356 355 355 355 356 355 354 354 355 355 355 355 355 356 356 356 355 355 355 355 355 354 354 353 352 351 350 349 348 346 345 344 342 340 339 338 338 337 337 337 336
332 333 334 334 335 337 339 340 341 342 343 345 346 347 348 349 350 352 353 353 353 353 352 352 352 352 351 351 351 351 352 352 353 353 353 353 353 353 352 351 352 351 350 350 354 355 355 354 355 356 355 354 354 355 355 355 356 356 356 356 355 355 354 354 355 355 355 354 353 352 351 350 349 347 346 345 344 342 341 339 339 338 338 336 335
332 332 332 333 334 336 338 339 341 342 344 345 347 348 349 349 350 352 353 354 354 354 353 352 352 351 351 352 352 352 352 353 353 353 353 353 353 353 352 352 352 351 350 350 351 354 355 355 354 355 356 356 354 354 355 356 356 356 356 356 356 355 354 354 354 354 355 354 354 354 353 352 350 349 348 347 346 343 343 341 340 339 338 336 335
330 331 332 333 333 334 336 338 340 341 342 345 347 348 349 350 351 352 353 354 355 354 354 353 352 352 351 352 353 353 354 353 354 353 353 352 352 352 352 352 352 351 351 351 352 352 354 355 355 354 354 356 355 355 355 355 356 356 356 355 356 355 355 354 353 353 354 354 354 354 354 353 353 347 341 342 342 341 345 342 341 340 338 337 336
329 330 331 332 334 335 336 337 339 340 341 343 346 348 349 350 351 352 353 354 355 354 354 354 353 353 353 353 353 354 354 354 353 353 352 352 352 352 352 351 351 352 351 351 351 352 353 354 354 354 353 354 355 357 348 336 340 355 356 356 356 356 355 355 354 353 353 354 354 355 355 346 341 338 337 335 336 335 336 343 344 341 340 338 337
328 329 330 332 333 335 336 337 339 340 341 342 344 347 350 351 351 352 353 355 355 354 354 354 354 354 354 354 353 353 354 353 353 353 353 352 352 351 351 351 351 351 351 351 351 351 352 353 353 354 353 353 354 354 338 333 333 336 351 356 355 355 355 355 354 353 352 352 353 354 355 351 343 339 341 333 334 333 333 334 336 337 337 341 338
328 329 330 332 333 334 336 338 340 342 342 343 344 346 348 350 351 351 352 356 356 356 355 355 355 355 355 354 354 354 353 353 353 353 353 353 352 351 350 350 350 350 351 352 351 351 351 352 353 354 353 354 354 340 334 332 331 331 336 354 355 355 355 354 354 354 353 353 353 353 354 355 355 353 351 347 337 331 330 330 332 333 333 333 336
328 330 331 332 333 334 337 339 342 343 343 343 345 346 348 350 351 352 353 353 356 357 356 356 356 356 356 356 355 354 353 353 353 353 353 353 352 351 350 349 349 350 350 351 351 351 351 352 353 353 353 354 354 339 332 330 330 330 330 339 355 355 354 354 354 354 354 354 353 353 353 354 355 343 347 351 350 345 330 327 329 330 331 330 331
335 333 333 335 337 336 337 339 341 343 345 345 346 347 349 351 352 353 352 352 353 355 357 357 357 357 357 357 356 355 354 353 354 353 353 352 352 350 350 350 350 350 349 350 351 351 351 351 351 352 353 354 354 340 330 327 327 328 329 332 352 354 354 354 354 354 355 354 354 353 352 352 354 354 353 352 351 350 348 342 337 336 338 337 329
340 341 342 343 344 344 342 342 341 342 343 345 347 348 349 351 352 352 352 352 352 353 355 357 357 358 358 357 357 355 354 354 354 353 353 352 352 352 351 351 350 350 349 349 350 350 351 351 351 352 352 352 354 337 329 325 324 324 327 329 349 353 354 354 354 354 355 355 355 355 354 353 353 353 354 351 352 351 349 348 345 342 340 341 341
340 340 341 343 344 343 342 341 343 342 343 348 349 351 351 351 353 353 353 353 352 352 352 354 356 357 358 358 357 356 355 354 354 353 352 352 352 352 351 351 351 351 351 351 351 352 352 352 352 352 351 351 353 333 327 324 323 323 325 337 346 350 352 354 354 354 354 355 356 355 355 354 354 353 344 333 339 351 350 348 347 346 344 343 343
344 346 346 347 351 351 351 352 352 353 353 352 347 346 352 352 352 352 352 353 352 352 351 352 354 356 357 358 358 357 356 355 354 353 352 351 351 352 352 353 351 350 350 350 351 352 353 353 353 353 352 352 353 338 325 322 321 321 324 341 346 349 351 352 353 354 354 355 355 356 355 355 355 354 343 332 330 333 350 349 348 347 346 345 344
346 348 348 348 348 348 350 350 351 352 354 355 356 355 353 353 349 349 350 351 351 351 352 352 352 355 356 357 358 358 356 355 354 353 353 352 352 352 352 353 351 350 349 350 351 351 352 354 353 354 354 353 352 343 323 319 319 320 327 344 347 349 350 351 352 354 354 354 355 347 354 355 355 355 337 330 329 332 346 349 349 347 346 345 346
344 345 345 346 347 349 351 351 349 348 350 353 357 357 356 354 356 352 345 347 349 350 351 351 352 354 355 357 358 358 357 357 355 355 355 354 353 352 353 353 353 352 351 351 351 351 351 352 353 354 348 351 354 344 321 319 317 318 327 345 349 349 349 350 351 352 353 354 354 350 343 343 348 347 333 328 326 330 346 349 349 348 346 346 348
343 345 346 346 348 348 348 347 346 346 350 352 354 357 359 358 356 354 353 345 344 347 350 352 352 354 355 355 357 358 358 357 356 356 356 355 355 354 353 353 353 353 352 351 351 351 350 351 352 353 354 353 354 354 337 317 317 317 320 344 350 350 349 350 351 351 352 353 353 354 348 329 327 328 327 325 323 321 342 349 350 349 348 347 350
343 344 350 345 345 346 346 346 346 347 349 351 353 354 354 355 355 349 349 353 353 348 347 350 351 354 355 355 356 358 358 358 358 357 357 357 357 355 354 354 353 353 353 352 351 351 351 351 351 352 353 353 355 354 346 315 315 315 316 325 349 351 352 352 352 351 352 353 353 354 355 338 326 323 322 321 320 318 322 346 350 350 350 348 339
344 349 347 343 345 344 344 346 347 349 350 350 351 352 354 355 349 351 356 362 361 359 351 349 351 354 355 355 356 357 358 359 358 358 357 356 357 357 356 355 355 354 353 352 352 351 351 351 351 352 352 352 353 345 355 318 315 313 314 314 341 352 352 353 353 353 353 354 354 355 355 343 329 324 321 318 317 318 318 332 344 332 331 326 340
339 341 345 344 342 343 343 344 346 347 348 349 351 350 354 354 349 352 357 359 360 360 354 349 351 354 355 356 356 357 358 359 359 358 357 356 357 357 357 356 355 354 354 353 353 352 351 351 351 351 352 353 353 351 336 336 314 312 312 312 319 337 334 351 354 353 353 354 356 356 354 339 327 323 319 317 317 317 317 327 321 322 323 328 336
341 342 343 344 342 342 342 345 345 346 346 347 349 349 354 353 348 353 356 357 358 358 353 350 350 352 355 356 357 358 359 360 359 359 358 357 357 358 358 357 356 355 354 354 353 353 352 352 351 351 352 353 354 355 337 329 327 312 312 311 312 318 326 345 353 354 355 355 356 357 348 324 316 313 313 315 316 316 327 320 316 316 319 327 339
337 340 344 342 341 342 343 343 343 343 344 346 347 347 349 348 350 354 354 355 356 358 355 350 350 352 355 356 357 358 359 360 360 360 358 358 358 359 357 357 357 356 355 354 354 353 353 352 351 351 350 351 355 356 356 338 324 316 313 312 312 313 316 317 339 351 353 351 319 305 307 310 313 312 311 312 314 314 313 312 313 315 327 338 339
337 339 342 340 341 342 342 341 341 342 343 346 346 346 345 346 350 353 354 354 355 356 358 351 350 352 355 357 357 358 360 361 361 361 361 360 360 359 358 357 357 357 356 355 354 353 353 353 352 352 351 352 353 355 348 336 329 325 320 313 312 313 314 314 317 325 319 316 315 315 315 316 320 326 332 335 337 338 323 319 316 317 328 334 337
335 338 341 338 338 338 340 340 340 340 341 343 344 344 346 347 350 352 352 353 355 357 358 354 350 353 356 357 358 359 360 361 361 361 362 362 362 361 359 357 358 357 356 355 355 353 353 353 353 353 354 353 354 346 337 338 336 329 328 325 319 321 316 315 322 328 324 331 332 331 332 323 320 319 320 319 322 325 329 332 334 330 328 330 333
335 337 341 336 335 335 338 337 337 338 340 342 343 343 345 347 350 352 352 354 355 357 356 353 353 355 358 357 359 369 363 361 362 362 362 362 362 362 360 358 358 359 357 356 356 355 354 355 354 355 355 355 345 333 333 333 332 335 332 327 327 328 327 326 327 329 331 333 333 325 325 331 333 335 337 338 340 341 339 338 339 337 333 332 331
334 336 341 337 335 337 336 336 337 339 340 340 342 343 346 347 348 348 349 351 353 360 358 352 353 357 358 360 361 364 360 361 356 333 319 315 317 337 356 350 335 328 353 361 359 358 358 358 357 356 356 347 339 335 331 318 319 308 325 334 332 331 329 329 323 314 329 330 329 330 330 331 331 331 332 334 336 337 338 339 340 341 339 336 333
335 337 338 339 339 338 337 337 338 339 339 339 339 340 343 346 347 347 348 347 347 353 350 350 351 352 355 360 361 361 361 360 350 336 331 324 316 303 308 327 325 320 309 310 334 353 354 342 330 322 327 345 344 334 309 301 301 298 297 297 297 297 299 310 308 308 320 327 326 326 329 330 331 332 332 333 334 335 336 336 337 331 337 338 338
334 334 335 339 338 341 339 338 338 339 339 339 339 339 341 344 345 345 347 346 347 350 348 348 348 348 348 355 356 358 359 358 350 341 334 328 324 319 302 301 309 311 307 302 301 303 312 321 330 322 314 306 307 301 298 298 296 297 297 297 296 296 297 298 303 322 326 324 323 324 325 325 326 327 327 328 328 328 328 329 329 330 331 331 331
Wind_Speed
15 17 18 18 18 16 15 15 14 16 15 16 16 16 15 14 13 14 13 13 11 10 9 9 10 8 7 8 9 7 6 6 6 6 7 7 8 8 8 7 7 7 6 6 6 5 5 4 3 3 4 4 4 5 4 3 3 3 3 1 2 0 1 2 1 4 5 4 4 3 2 1 4 5 6 5 5 5 5 5 5 5 4 4 4
14 13 16 17 16 17 16 15 14 17 15 17 18 18 16 15 15 13 12 13 13 12 10 10 10 10 10 10 8 7 7 7 7 6 7 7 8 8 8 7 8 7 6 6 6 6 5 4 4 4 5 4 3 3 3 3 3 2 3 1 0 2 1 0 3 3 1 4 5 2 1 2 0 2 3 3 5 4 4 5 5 5 4 4 3
16 16 17 17 19 19 16 15 15 17 18 19 18 17 17 15 14 13 12 13 13 12 11 11 9 8 9 7 9 6 6 6 6 6 6 8 8 9 8 8 8 7 7 7 6 6 6 6 5 5 5 4 3 3 3 3 3 3 4 4 2 0 0 1 3 3 3 2 3 4 1 2 1 1 1 2 4 4 4 5 5 4 5 4 4
19 19 18 18 19 18 16 16 15 16 16 16 17 18 15 14 14 14 14 13 13 13 12 10 10 7 5 6 6 7 7 5 6 4 5 7 9 8 8 9 9 9 8 7 6 6 7 7 5 5 5 4 5 4 3 4 3 3 3 3 3 1 1 2 2 4 4 6 3 2 3 4 1 3 3 3 2 4 7 6 4 5 4 3 4
20 19 17 18 19 20 19 17 15 16 17 17 18 17 14 17 15 16 14 14 13 13 13 10 8 6 5 4 4 4 3 5 5 5 5 7 8 8 9 9 10 9 9 9 7 7 6 6 6 5 5 5 5 5 5 6 5 4 4 3 3 4 3 2 1 1 4 5 6 3 2 1 3 4 2 4 1 1 4 6 5 5 5 5 6
22 22 22 21 21 19 18 18 18 16 17 18 18 18 16 15 15 15 13 13 13 14 14 11 11 11 9 9 9 8 9 9 11 11 8 8 10 9 8 9 10 9 9 9 8 6 7 7 6 5 5 5 5 5 5 3 3 4 5 5 4 3 3 2 1 0 2 5 4 4 6 3 3 2 4 3 1 1 3 5 6 7 6 6 5
19 20 19 19 20 20 20 20 20 19 18 17 17 17 17 16 15 16 14 13 13 13 14 12 11 10 13 12 11 11 11 9 9 8 8 6 5 8 8 8 9 10 8 8 8 7 6 6 6 6 6 6 5 5 5 5 5 5 4 4 5 4 2 3 4 3 1 1 2 2 2 1 5 6 4 2 2 2 1 2 4 5 7 7 7
19 21 21 20 21 22 23 22 20 20 18 17 16 16 18 17 16 16 14 14 13 13 14 14 13 13 13 12 11 11 12 11 11 9 6 5 7 8 7 8 8 8 9 8 8 7 7 7 7 6 6 6 6 6 6 6 5 4 4 5 4 4 5 4 4 3 6 3 1 1 1 1 2 1 5 7 5 4 3 2 0 3 5 6 8
22 20 22 22 22 22 21 21 21 19 17 17 17 16 16 17 16 15 15 14 13 15 15 14 13 13 13 12 11 10 10 9 8 7 7 5 6 6 7 8 8 8 8 9 8 8 7 7 7 6 6 6 6 6 5 5 6 6 5 5 5 5 5 4 4 5 4 5 2 0 1 1 1 1 4 3 4 4 2 3 3 0 0 2 4
20 22 23 23 23 23 22 21 19 18 17 17 16 15 15 14 16 16 16 14 14 15 15 15 14 13 12 12 13 11 8 7 6 8 8 6 6 7 8 8 8 7 7 8 8 8 8 7 7 7 7 6 6 6 5 5 5 5 6 6 5 5 4 5 5 5 6 3 4 5 3 1 2 2 2 2 2 3 6 5 5 6 5 5 4
18 20 20 21 21 21 19 19 20 17 15 17 16 16 15 15 16 17 17 14 15 16 16 16 14 13 13 14 14 13 11 9 8 9 8 7 8 7 8 8 7 8 7 7 8 8 8 7 8 7 7 6 6 6 6 7 6 6 6 5 6 7 5 5 4 4 4 4 3 5 6 6 5 4 5 3 3 2 2 3 2 4 7 4 5
19 19 19 18 15 15 16 19 19 18 16 17 16 16 16 15 16 18 16 16 15 15 16 16 14 14 14 14 14 13 11 10 12 12 11 12 11 9 7 6 7 7 7 7 7 8 8 8 7 7 7 7 7 7 6 6 6 5 5 6 6 6 5 5 4 4 4 5 4 4 5 5 4 4 5 6 5 4 5 4 5 2 1 3 2
19 18 17 17 17 18 19 19 18 18 17 19 19 18 17 17 19 19 18 17 16 16 17 17 15 15 14 14 14 11 11 11 11 12 11 11 10 9 8 8 7 7 8 8 8 10 8 8 8 8 7 7 7 7 6 6 6 6 6 6 6 6 7 6 6 5 6 5 6 4 5 4 5 4 5 5 4 5 5 4 4 2 4 3 3
19 19 18 18 18 18 19 19 19 18 19 20 19 18 17 17 19 20 20 19 17 17 18 17 17 16 15 14 13 12 11 11 10 11 11 10 10 11 10 10 9 10 9 10 9 9 8 9 9 8 8 7 7 7 7 7 6 6 6 7 7 7 6 6 7 6 5 5 4 5 5 6 5 4 5 5 5 4 3 5 4 0 1 4 1
18 18 19 20 20 20 19 19 19 19 20 20 18 18 18 18 18 20 20 19 19 19 17 19 17 17 15 14 13 12 11 11 10 9 10 10 9 10 9 8 9 9 9 9 8 9 9 8 9 9 9 8 7 7 7 7 6 6 6 7 7 6 7 7 6 6 6 5 4 5 6 5 6 5 5 5 5 6 6 5 6 3 0 0 2
19 19 20 21 21 20 18 18 19 19 20 19 20 18 18 18 19 20 21 20 19 19 17 18 17 15 15 15 15 14 11 10 8 7 8 9 9 10 10 10 9 8 7 7 9 9 9 9 9 10 9 9 8 8 7 7 7 7 6 6 7 5 7 7 7 6 7 6 6 5 4 7 6 6 5 5 5 6 6 5 6 6 7 3 1
20 20 19 20 19 19 19 19 18 18 18 19 20 20 21 20 19 19 18 16 17 17 17 17 16 15 15 15 14 13 13 13 11 11 10 9 9 9 9 9 8 7 8 8 9 9 9 9 10 10 9 9 9 9 8 8 7 7 7 7 8 7 7 8 7 7 7 7 5 6 7 6 6 5 5 5 5 4 5 6 7 8 7 6 5
22 22 22 22 21 22 21 19 20 20 21 21 22 20 19 19 20 20 18 19 18 17 16 15 15 15 14 15 14 14 14 14 12 12 10 9 8 8 8 7 9 9 9 8 9 10 10 10 9 9 9 9 10 9 9 9 8 7 8 8 8 7 8 6 7 7 7 6 6 6 6 7 6 6 7 6 6 7 6 6 7 6 7 8 6
19 19 17 17 18 20 20 21 21 21 22 22 20 18 17 17 18 20 20 21 20 17 17 15 15 13 13 14 15 14 13 12 12 11 9 10 11 10 10 11 9 8 8 9 9 10 10 10 9 9 9 10 9 9 9 9 8 8 7 7 7 7 8 8 7 7 7 7 7 8 7 7 7 7 6 6 5 6 7 6 6 6 7 7 8
19 19 19 19 21 22 22 22 22 22 19 17 18 16 18 18 18 19 19 18 17 17 16 16 16 14 13 13 13 13 13 12 12 12 12 12 13 12 12 11 11 9 9 10 10 10 10 10 9 10 9 9 10 10 9 9 8 9 8 8 7 8 9 9 8 7 7 8 8 9 9 8 7 6 7 7 7 6 6 7 7 7 7 7 7
20 19 19 19 19 20 20 20 21 19 17 16 17 19 19 17 18 19 20 19 18 18 17 16 14 15 15 15 14 14 14 13 12 12 12 12 11 11 12 12 9 10 9 9 10 11 11 11 10 10 11 10 10 10 9 9 9 9 9 9 8 9 10 9 8 9 8 8 10 10 10 9 7 7 8 7 7 7 6 7 7 7 7 7 7
20 20 19 19 19 19 19 17 14 14 16 18 18 17 18 19 18 18 18 18 19 18 17 16 15 14 16 16 16 14 14 13 13 13 13 12 11 11 11 9 11 11 11 11 11 10 10 11 11 11 11 11 11 11 10 9 10 10 10 8 9 9 10 10 8 10 10 9 9 10 10 10 8 9 9 9 8 7 7 6 7 8 8 8 8
20 20 19 19 19 19 19 19 18 19 19 19 18 17 18 20 19 17 18 19 19 19 17 16 15 15 17 16 15 15 14 14 15 13 13 13 11 11 9 10 12 11 11 11 12 11 11 11 11 11 11 11 12 11 11 11 11 12 12 11 10 11 11 11 11 12 11 10 10 10 11 9 7 8 10 9 7 8 7 8 8 7 8 8 8
21 19 18 17 17 17 16 17 16 15 16 18 18 17 17 17 17 17 19 20 18 16 16 16 15 16 16 15 15 15 15 15 15 13 14 14 12 11 10 11 11 10 11 11 11 11 11 11 12 12 12 12 12 12 11 12 13 13 12 13 12 12 12 12 12 12 11 11 12 11 11 10 9 10 10 9 8 7 8 8 8 7 7 8 7
17 17 16 15 15 16 16 17 17 17 17 18 18 17 16 16 16 17 17 17 16 15 15 16 16 17 17 16 17 16 16 16 16 14 15 15 14 13 11 12 11 11 11 11 10 10 11 11 12 13 13 13 13 13 13 13 12 12 13 13 13 12 12 12 13 12 12 12 12 13 13 11 9 10 10 9 9 9 9 8 9 8 8 7 6
18 18 16 17 18 17 16 16 15 16 17 17 17 16 16 15 17 16 16 16 17 15 16 16 16 17 16 17 17 16 17 17 17 16 16 16 15 14 13 12 13 13 12 11 12 11 11 13 13 14 14 14 13 13 14 14 14 13 12 13 12 12 13 13 13 12 12 12 13 14 13 11 11 12 12 11 10 12 10 9 9 8 8 7 7
20 19 18 16 14 16 18 18 17 17 17 16 16 16 16 15 16 17 16 16 16 16 16 16 16 17 15 16 16 16 16 16 16 16 15 15 15 15 15 15 14 14 13 12 12 13 12 13 14 13 14 14 13 13 13 13 13 13 13 13 13 13 13 12 13 13 13 13 13 13 12 12 13 13 13 13 12 12 11 12 11 11 8 6 7
17 16 16 17 17 17 17 17 17 16 16 15 15 16 17 17 17 17 16 16 15 16 17 17 17 16 16 16 16 16 16 15 15 15 15 16 15 15 15 14 13 14 14 14 14 14 14 13 14 14 14 13 12 12 13 13 13 13 13 13 14 13 14 13 13 13 13 13 14 13 13 13 14 13 14 13 12 12 11 11 11 9 8 8 9
20 20 19 19 17 16 17 17 17 16 16 16 15 15 15 14 15 16 16 17 16 16 17 17 16 16 17 16 15 14 13 14 14 14 15 15 15 15 14 14 13 13 13 14 14 14 14 14 14 14 14 12 12 13 12 13 13 14 14 14 14 14 14 14 14 13 13 13 13 13 13 13 15 17 18 16 15 14 11 12 12 10 10 10 10
20 19 19 18 19 18 18 18 16 17 17 16 15 15 16 16 16 16 16 16 16 17 17 17 17 17 16 15 15 13 13 14 15 15 15 15 15 14 14 14 14 14 14 14 14 14 14 15 15 15 14 12 12 11 14 20 17 14 14 13 12 13 14 13 13 13 13 13 14 13 13 18 18 19 19 19 19 19 19 15 13 10 11 11 11
17 16 15 14 15 15 15 16 17 17 17 17 16 16 15 15 15 15 16 15 15 15 15 16 16 16 16 15 14 14 14 15 15 14 14 15 15 14 13 14 14 14 15 14 14 15 15 15 16 15 15 14 13 13 19 18 20 21 16 13 13 13 12 12 12 12 13 13 12 13 12 14 15 16 17 20 19 20 19 21 20 16 15 14 12
17 15 14 14 14 14 16 17 17 17 17 16 15 15 15 16 15 15 15 15 15 15 16 16 16 15 15 14 14 14 14 15 14 15 15 14 13 14 14 14 14 15 14 13 14 15 16 15 14 15 15 15 14 16 19 19 20 21 19 15 12 12 11 12 12 13 12 11 12 12 12 11 12 14 15 14 17 20 20 21 21 20 18 19 19
16 15 15 15 15 15 16 16 15 16 15 16 16 15 16 16 15 14 13 14 15 15 15 16 15 15 15 15 15 15 16 15 15 15 14 13 13 14 14 15 16 15 13 14 15 16 16 15 15 16 16 16 14 18 20 20 20 21 22 19 13 12 12 12 12 13 13 12 11 11 12 11 12 17 15 14 14 15 18 21 21 21 20 19 20
7 6 6 5 5 5 7 10 12 13 16 15 14 16 15 14 14 13 14 14 14 14 15 15 15 15 15 15 15 15 15 15 15 14 14 14 14 16 15 14 13 12 14 14 15 16 16 15 16 16 15 15 15 17 20 21 20 21 21 18 14 14 13 13 13 13 12 13 13 12 12 12 12 12 12 14 14 14 13 13 14 13 14 17 20
11 10 8 6 7 7 6 5 4 5 5 6 8 9 9 10 11 12 12 12 13 13 13 14 15 15 14 14 15 15 15 15 15 15 15 15 16 15 15 14 13 14 14 15 15 16 16 15 16 15 14 15 14 18 18 19 19 20 20 17 14 13 13 13 13 12 13 13 13 13 13 14 13 12 12 13 13 14 13 12 13 15 15 16 17
10 12 9 9 8 9 9 6 4 6 3 4 5 6 9 10 11 12 12 12 13 13 13 13 14 15 15 15 15 15 15 15 15 15 15 16 16 15 16 14 13 13 13 12 13 13 14 14 14 14 14 15 14 16 17 18 19 19 18 12 12 13 14 14 13 13 13 12 12 13 13 14 14 14 15 18 17 13 13 14 15 15 14 15 17
12 13 11 9 9 11 8 8 9 8 7 5 2 5 9 10 12 12 12 12 13 13 13 12 14 15 15 15 15 16 15 15 15 15 15 15 15 15 14 12 13 14 14 14 14 14 13 13 14 14 15 15 13 13 16 17 18 19 14 11 12 12 13 14 14 13 13 13 12 13 13 13 14 15 16 17 19 17 14 16 15 15 14 14 17
13 12 12 11 9 10 10 10 10 11 8 5 5 5 4 4 5 6 8 11 12 13 13 12 13 14 15 15 16 16 16 15 15 16 16 15 15 14 14 13 15 15 15 15 14 13 13 13 13 15 14 14 13 11 15 16 19 20 18 14 12 12 14 14 13 13 12 12 14 19 17 15 15 15 16 18 19 16 15 17 15 14 14 17 18
12 12 12 11 10 10 10 10 11 11 7 6 7 6 7 5 3 2 5 7 9 11 11 12 12 12 14 15 16 16 16 16 16 16 15 15 15 15 14 13 14 13 14 13 12 13 13 12 14 14 16 16 13 11 16 17 20 20 18 12 12 12 13 13 12 13 12 12 13 14 19 18 17 17 18 18 19 17 16 16 15 13 16 20 17
12 11 9 9 9 12 13 12 11 8 5 7 6 6 6 4 4 2 1 5 7 8 8 10 12 12 12 13 14 16 16 16 16 15 14 14 13 12 13 13 13 12 12 12 12 12 14 13 12 12 12 13 12 10 11 18 19 21 23 15 11 12 14 14 13 13 12 12 12 12 14 18 21 21 21 20 19 21 17 16 13 14 16 21 7
13 12 10 10 10 10 10 9 7 7 6 6 6 7 6 4 3 3 3 3 3 4 7 8 7 9 11 13 12 14 16 15 15 15 15 14 12 12 12 12 13 11 11 11 12 12 12 12 11 11 11 10 10 9 10 18 19 21 23 20 12 13 13 12 12 13 12 12 11 11 11 14 18 20 22 22 21 20 19 16 15 14 17 4 11
11 13 12 10 9 9 9 10 9 10 9 7 5 6 4 4 3 4 4 4 4 4 4 6 9 10 10 11 12 12 13 13 13 13 12 12 11 12 12 12 11 11 13 13 12 11 11 10 9 9 8 8 9 14 8 15 19 21 21 24 14 13 13 12 13 12 11 10 10 10 11 14 19 20 21 21 21 19 20 14 17 18 6 14 12
11 12 11 11 10 9 9 8 7 8 8 8 8 7 5 4 5 5 5 4 4 5 3 6 7 9 10 10 10 12 11 9 10 12 13 13 11 11 11 11 11 11 11 12 11 10 10 9 8 7 5 6 6 9 14 12 17 21 22 21 22 16 16 14 12 13 11 11 11 11 12 17 18 20 20 20 20 22 18 15 20 20 15 15 19
8 8 8 9 9 8 8 7 8 8 7 7 7 7 6 6 5 5 6 5 5 6 3 4 6 6 8 9 10 10 10 9 11 11 11 11 11 10 10 10 11 10 10 10 9 8 8 8 8 7 5 5 5 6 11 16 15 20 20 21 22 23 18 13 13 12 11 11 11 10 7 10 11 13 15 16 17 17 14 17 17 12 8 14 15
11 11 7 8 8 8 7 7 7 8 7 7 6 7 6 7 7 5 6 6 6 6 4 3 5 6 6 5 6 8 9 9 9 10 10 10 9 9 9 8 8 8 8 9 8 7 8 8 7 7 6 6 6 6 7 12 16 17 20 20 21 20 19 13 9 10 7 4 4 7 11 10 10 8 8 9 10 13 16 15 13 8 14 11 13
12 13 11 8 9 9 8 7 8 8 8 7 7 5 6 7 7 5 5 6 5 6 6 3 4 5 6 6 7 6 7 8 9 9 10 9 11 10 10 8 8 8 8 8 7 7 7 7 7 6 6 6 6 6 2 3 2 6 7 10 12 11 12 12 10 11 13 14 15 15 15 14 10 6 5 5 6 8 9 12 12 10 9 10 11
11 10 9 7 7 8 8 7 8 7 7 7 7 7 5 6 7 6 5 5 6 5 5 3 4 4 5 7 8 7 7 6 6 6 6 7 7 8 8 8 8 8 8 7 7 7 7 7 7 6 6 6 6 3 3 3 3 3 2 4 6 8 8 6 7 8 9 10 13 12 9 11 11 14 14 13 13 12 10 9 7 7 9 10 11
10 10 10 6 6 6 6 6 7 7 7 7 7 7 7 6 6 4 4 4 4 4 5 4 2 4 6 7 8 10 10 7 7 6 5 5 6 8 8 8 9 9 8 7 7 7 8 8 7 7 6 6 3 4 4 4 2 3 3 3 3 3 4 5 6 6 6 6 5 5 7 5 6 7 8 7 7 7 8 9 8 6 7 9 12
11 11 10 8 4 5 5 6 7 6 7 7 8 8 7 6 5 5 4 4 4 4 4 4 1 3 5 5 7 8 8 8 8 11 9 8 5 4 1 3 6 4 3 8 9 8 8 8 7 7 7 4 3 5 5 2 3 3 3 4 4 3 2 2 2 4 1 1 2 3 4 5 4 5 6 7 7 7 8 7 7 6 5 6 7
7 8 9 9 5 5 6 7 5 6 7 7 8 8 8 7 6 7 5 4 3 3 4 4 4 1 3 6 6 6 7 8 10 9 10 10 15 14 11 6 4 8 8 7 3 4 3 6 7 4 2 5 7 5 7 7 4 6 8 8 7 7 4 3 2 3 2 1 2 2 4 5 6 6 6 7 8 8 9 10 9 8 8 8 7
8 8 9 8 7 4 7 6 5 5 6 6 6 7 7 8 8 7 5 4 3 3 4 4 4 4 2 4 5 6 6 8 9 9 9 10 8 12 16 15 11 11 14 16 16 14 12 8 9 7 7 14 14 12 10 6 7 6 7 8 8 7 5 4 3 5 4 3 3 3 3 4 4 4 5 6 6 7 7 8 9 9 9 10 10
Wind_Direction
183 182 179 179 177 175 177 176 172 177 175 178 179 180 181 179 175 178 178 176 175 176 180 176 180 180 180 183 189 189 185 188 187 174 181 184 178 178 178 179 177 174 178 170 169 177 185 185 183 167 168 170 164 179 180 177 176 163 165 176 156 160 328 91 121 109 106 49 44 88 96 107 167 160 173 170 185 178 161 164 171 167 179 178 179
176 180 180 180 178 178 176 180 175 175 180 178 181 183 183 180 181 178 175 179 181 182 182 183 184 185 181 185 179 183 184 186 194 188 185 186 182 179 181 180 178 178 178 176 168 175 178 186 189 183 177 180 179 172 172 176 145 140 144 155 341 148 206 234 145 104 38 137 122 89 37 337 94 155 179 190 179 165 166 163 169 171 178 191 156
183 183 179 182 181 179 178 180 180 178 178 181 181 181 183 183 183 178 179 181 183 183 182 188 187 184 183 178 177 180 195 193 191 184 187 179 186 183 181 180 179 182 182 178 170 180 181 181 192 186 186 175 157 172 165 181 161 166 165 169 222 8 265 250 159 141 153 114 107 92 150 89 331 8 314 228 197 162 174 174 177 168 183 175 159
186 184 182 182 181 182 181 181 178 176 177 181 182 183 183 185 183 181 182 182 183 185 187 188 184 177 170 163 172 174 185 188 189 177 176 175 184 185 185 180 180 183 185 184 179 179 177 187 184 185 193 180 166 173 182 194 181 167 174 189 142 146 283 268 183 189 132 126 128 164 197 124 81 259 239 265 145 166 178 188 167 169 173 150 146
185 186 184 180 183 185 185 183 175 177 178 180 182 183 185 184 182 181 181 183 183 183 182 175 169 154 142 125 135 137 131 182 190 216 185 187 175 184 190 183 181 183 186 187 185 181 180 180 180 188 185 184 171 180 188 200 191 185 182 178 182 173 207 261 284 167 150 166 135 103 59 77 204 228 152 271 35 112 195 164 168 158 166 170 173
182 185 186 184 185 184 183 182 183 181 181 182 183 184 181 181 176 179 180 183 184 182 176 171 175 172 164 160 168 177 185 189 199 202 196 188 191 183 182 185 184 184 185 188 188 181 182 183 181 179 189 185 185 193 197 189 186 185 197 188 201 201 166 177 248 215 192 186 168 169 165 172 188 221 113 235 14 317 160 158 163 170 169 168 178
188 187 184 183 184 184 185 186 186 185 185 181 182 183 181 177 175 177 180 182 182 181 175 174 175 180 183 183 180 184 186 200 201 202 201 190 170 179 183 187 187 183 187 186 187 184 184 184 185 185 190 188 190 183 197 202 198 195 190 190 206 199 151 185 189 192 46 295 205 162 126 143 144 130 190 114 171 322 61 163 180 171 167 167 177
185 187 187 186 184 185 187 188 186 187 181 179 182 182 181 177 173 176 178 179 182 179 177 178 179 182 186 190 191 192 192 193 193 199 191 166 178 184 180 187 190 188 183 187 187 184 184 189 192 188 188 191 188 192 199 202 197 207 195 202 198 195 187 181 197 188 160 223 224 144 127 122 128 109 143 161 156 151 214 293 299 182 172 183 179
184 186 187 186 188 190 188 187 189 182 178 182 183 183 182 178 174 174 176 178 179 181 180 181 182 185 188 190 194 199 198 196 191 190 193 176 180 182 182 186 189 191 187 184 187 186 186 191 192 192 191 192 192 198 201 194 195 193 202 205 208 212 193 196 156 197 185 192 155 319 85 90 104 208 137 116 141 132 232 196 195 171 275 275 219
186 189 189 188 188 187 187 186 182 182 181 181 181 180 181 179 176 174 178 178 179 182 183 183 184 183 189 194 197 197 192 188 182 190 198 183 180 187 186 186 189 189 191 188 186 187 189 188 191 197 199 193 193 199 199 198 203 200 200 204 208 209 202 186 190 185 190 209 193 164 156 81 72 64 114 104 55 112 167 207 195 174 200 239 198
188 190 192 192 188 186 179 179 184 182 178 178 179 180 180 179 180 180 180 179 179 182 184 186 185 186 191 195 198 197 190 182 182 192 196 195 191 190 189 192 185 189 185 191 189 186 191 191 194 200 200 197 195 195 202 203 204 203 205 204 206 203 193 193 200 179 181 184 193 168 180 163 176 169 192 180 142 147 103 208 225 202 202 211 226
186 187 190 189 183 183 179 182 181 180 176 178 179 178 177 180 182 184 182 180 181 183 186 188 187 190 194 194 198 198 189 186 188 191 191 197 200 191 187 178 188 187 188 184 190 192 190 195 198 198 202 199 200 200 202 205 206 200 199 200 208 207 191 184 186 190 185 196 197 190 202 181 169 165 189 170 161 183 164 190 202 196 284 237 266
182 186 186 183 182 181 183 183 179 178 179 179 180 178 179 180 182 184 185 182 182 183 187 190 190 193 194 195 198 196 195 193 193 193 192 195 197 193 175 189 183 185 193 191 195 191 190 192 197 201 205 204 203 199 203 204 204 198 199 200 201 197 197 187 186 196 185 188 210 204 195 202 194 201 157 172 185 147 163 180 233 160 184 215 252
182 184 185 185 185 184 183 180 180 179 180 181 180 180 181 183 184 185 187 184 182 184 188 190 194 195 194 194 195 193 195 196 196 196 195 196 193 195 191 189 188 194 189 196 193 189 192 196 194 201 204 204 204 205 202 205 202 200 197 200 202 203 193 193 193 196 191 202 187 194 203 204 217 181 188 163 162 138 149 185 192 323 166 203 233
182 184 186 187 188 184 181 182 181 180 181 181 181 182 180 184 185 188 188 188 184 186 187 190 194 196 195 195 194 193 196 197 199 198 195 194 193 194 196 192 194 196 193 194 186 190 193 193 197 199 201 203 200 203 207 205 207 202 200 203 203 197 196 194 199 188 196 203 200 201 205 208 216 203 180 199 173 182 173 177 158 148 15 162 241
184 187 189 190 186 184 183 183 184 183 180 181 182 180 182 184 185 189 189 188 187 185 187 191 194 193 194 195 196 195 196 197 199 197 199 197 193 191 193 195 197 192 191 180 192 191 191 195 197 202 201 201 201 199 201 203 205 203 207 200 207 195 196 197 201 194 202 199 200 204 204 221 215 212 197 197 198 195 194 176 165 159 160 222 294
186 187 190 188 186 186 185 185 184 183 180 183 183 182 183 182 184 187 188 187 191 189 188 190 191 191 195 196 196 197 197 197 199 197 195 196 195 195 192 196 191 187 187 188 190 193 195 193 196 200 201 202 203 202 201 203 198 202 204 205 207 199 196 202 197 197 208 198 197 196 205 217 225 215 210 199 206 213 213 197 183 175 173 162 194
186 188 188 185 185 186 186 186 185 184 184 186 186 185 182 181 182 183 184 187 190 189 190 191 191 193 194 197 198 198 199 201 200 200 198 192 197 199 196 186 195 193 187 188 191 194 196 195 195 199 201 201 204 204 204 205 200 202 205 208 208 195 201 205 201 199 205 200 203 198 203 216 223 209 215 204 195 203 207 208 202 192 169 180 181
189 189 185 185 186 188 187 186 187 188 189 186 182 179 180 183 183 182 185 188 188 189 190 190 190 194 196 196 196 197 200 203 204 202 196 199 200 200 200 200 195 188 187 188 191 195 195 198 199 201 200 202 204 206 205 207 203 206 204 208 207 199 201 205 205 198 205 196 205 211 205 216 218 213 216 218 204 194 205 206 216 185 189 184 176
187 187 187 187 187 188 188 187 186 189 187 181 177 179 183 185 182 186 188 187 187 190 190 191 192 193 195 194 197 199 200 202 203 199 199 202 203 202 204 202 200 188 190 188 191 195 196 196 200 202 202 203 203 207 204 206 204 210 205 204 205 200 205 208 208 204 203 202 205 213 215 214 216 214 215 214 216 205 202 203 207 200 197 188 172
186 185 187 187 187 188 190 190 190 185 180 177 177 182 185 183 187 188 186 186 188 192 191 194 190 194 192 193 195 195 200 202 205 205 207 208 205 204 204 206 196 197 189 188 192 196 195 198 197 201 203 203 205 206 205 204 205 210 210 207 201 199 207 213 206 209 210 206 209 213 219 221 212 215 221 218 214 211 200 208 209 201 202 192 177
186 185 184 186 186 187 189 189 185 178 180 183 184 184 182 185 188 188 187 188 190 191 193 193 192 193 194 193 194 196 200 200 203 205 209 210 207 204 204 199 200 204 195 197 197 194 196 196 199 202 206 207 206 207 206 203 208 211 213 209 207 201 208 213 206 212 210 211 210 215 220 220 211 217 222 222 215 209 202 206 215 205 204 199 196
185 183 183 184 183 184 184 183 182 182 183 184 183 185 186 188 186 186 187 191 191 192 192 191 193 194 196 195 194 196 197 199 202 204 210 211 211 209 199 198 203 202 201 202 202 201 198 196 201 204 206 209 209 208 207 206 209 210 212 213 211 208 209 210 210 214 212 210 213 217 222 217 211 218 224 225 217 214 206 205 212 209 208 203 196
186 180 181 181 182 181 181 182 181 180 181 185 187 189 189 187 186 185 190 191 191 192 191 191 194 198 196 194 194 196 196 199 202 204 209 210 210 211 204 205 206 202 202 206 203 203 202 201 205 206 208 211 211 210 209 209 210 210 213 214 213 213 214 215 214 215 214 211 215 219 224 215 209 216 223 225 223 217 212 211 211 211 213 211 200
180 175 177 176 175 180 184 183 182 183 184 186 188 189 186 186 185 187 190 188 190 189 190 193 194 197 197 196 196 195 196 198 201 203 208 208 210 209 207 210 207 207 206 204 206 202 203 204 208 210 210 212 212 209 210 212 212 212 213 214 215 215 216 217 218 217 215 213 216 218 221 214 208 215 224 223 221 219 218 215 215 212 211 212 205
176 175 173 174 181 183 180 183 184 185 185 186 189 189 187 186 188 185 186 186 189 188 191 192 195 198 200 199 198 196 197 198 200 203 206 207 208 208 207 210 208 210 209 206 205 204 204 207 211 212 212 213 212 210 211 213 212 212 213 216 217 217 218 218 220 220 218 216 218 220 221 214 211 213 219 219 219 220 218 218 220 218 213 206 209
176 176 178 177 175 177 181 182 183 184 186 186 187 187 187 188 186 187 187 187 187 188 190 192 195 198 200 202 200 199 199 199 200 203 204 207 208 208 208 210 208 210 208 208 207 207 210 210 213 213 215 214 212 212 213 213 214 212 213 214 217 219 220 220 222 221 221 219 220 222 221 217 216 217 219 218 216 218 217 220 217 219 210 204 216
176 177 174 177 179 179 179 181 182 185 185 185 186 186 187 188 188 187 186 187 187 188 190 191 193 197 200 202 202 200 199 200 200 202 206 208 208 208 209 210 207 209 210 210 209 209 211 212 215 215 217 214 212 214 214 214 213 214 213 216 216 218 220 223 224 223 222 221 221 222 222 220 220 219 218 221 215 218 218 224 221 213 205 202 215
177 180 179 180 176 176 179 181 183 181 180 182 185 188 190 190 187 187 188 190 185 188 191 192 193 196 200 202 201 201 200 200 200 202 206 208 209 210 209 209 208 209 210 211 211 211 212 215 218 217 218 215 213 215 214 212 212 215 215 217 216 217 219 222 225 226 224 224 224 224 225 224 222 223 220 219 217 214 211 220 222 209 207 206 215
181 182 182 181 177 176 178 180 180 182 182 182 185 188 189 188 188 188 191 189 185 189 190 192 195 197 199 198 198 198 199 199 200 203 205 207 209 210 210 211 211 210 210 210 211 212 213 215 217 218 218 217 218 217 216 212 210 212 215 219 219 220 220 222 224 226 229 227 227 226 228 226 225 225 225 223 223 220 218 218 219 204 206 206 211
181 182 182 175 176 176 175 177 181 183 183 184 188 189 190 189 189 189 189 189 186 188 190 194 197 199 198 196 195 199 198 201 203 204 205 206 208 208 210 213 214 212 211 210 211 212 214 215 216 216 216 218 219 220 214 210 212 213 213 217 220 222 222 224 225 225 228 228 231 230 233 230 228 230 229 226 224 224 222 224 225 214 205 203 208
177 176 173 177 175 170 175 180 182 183 183 186 188 189 189 194 192 191 189 186 186 188 191 194 198 198 196 194 196 197 200 203 201 204 204 205 206 207 211 213 214 214 212 210 212 214 216 216 217 218 219 219 221 219 214 210 210 212 213 217 220 222 222 223 225 225 227 228 230 230 230 231 228 226 226 228 228 228 226 225 226 224 216 212 210
171 169 174 179 178 178 179 179 179 179 180 186 184 185 193 194 193 192 187 188 188 189 191 196 197 196 196 195 196 197 200 201 202 202 203 202 204 208 211 212 215 215 212 212 214 215 217 217 217 218 220 220 223 218 213 211 210 210 212 215 224 222 222 224 223 226 228 227 228 230 232 229 233 227 224 226 227 229 229 230 229 229 226 219 220
94 117 137 138 139 145 167 179 180 184 185 182 181 187 190 190 192 190 190 190 190 192 191 194 196 196 195 195 196 197 200 201 200 200 198 200 202 208 210 212 215 214 216 217 216 218 218 218 219 220 222 223 223 219 211 210 210 210 210 208 224 225 226 228 225 225 227 229 229 229 231 234 232 228 225 224 227 229 227 227 232 232 232 231 230
87 87 90 103 116 116 112 120 152 178 183 179 192 196 188 190 191 191 191 191 194 195 192 192 194 196 195 195 195 197 199 200 200 198 198 200 203 206 207 209 210 212 214 217 217 218 220 219 220 222 224 226 227 220 210 209 210 209 210 205 222 227 233 233 231 228 227 229 229 230 232 236 234 231 227 220 222 226 226 228 228 228 228 231 229
78 86 78 79 88 101 102 95 88 92 111 163 188 189 184 195 192 193 194 195 196 198 197 192 194 195 195 194 193 195 198 199 199 198 199 202 203 203 206 206 209 213 216 219 223 223 224 224 224 224 227 232 231 216 208 205 207 209 206 207 219 227 232 235 235 232 231 231 231 230 233 236 237 236 230 218 217 218 224 228 230 231 230 232 235
74 74 76 74 76 78 82 85 74 71 64 51 79 167 192 195 195 198 196 197 197 201 201 194 194 194 194 193 194 195 196 197 197 198 200 202 203 205 208 203 209 212 212 215 219 219 222 223 222 223 226 232 234 215 203 202 202 203 197 212 218 227 233 236 237 234 234 233 232 230 231 237 237 239 231 219 217 209 225 228 230 232 233 235 241
75 72 69 65 67 71 64 64 68 60 48 36 38 59 94 140 191 204 199 203 200 204 203 196 196 194 192 192 193 194 196 196 197 199 199 202 203 204 205 200 206 209 214 216 215 220 221 222 221 223 223 229 231 213 196 197 196 195 194 206 215 222 232 235 238 236 235 235 234 231 231 235 239 241 232 220 217 204 223 229 229 232 236 241 245
62 66 68 62 60 66 69 62 56 50 33 36 38 45 56 47 60 137 183 208 216 212 205 203 198 193 193 192 192 194 196 196 197 198 199 200 201 201 203 201 207 210 214 214 215 218 221 221 221 223 220 221 227 214 193 191 192 194 196 209 211 220 230 233 235 239 235 238 238 234 232 233 239 242 235 226 217 205 222 228 227 227 237 242 246
49 48 59 66 59 56 52 50 48 41 36 38 37 43 41 28 359 3 131 192 211 220 219 213 199 193 193 192 192 193 195 196 197 197 199 200 200 201 201 202 206 209 212 214 215 218 221 222 221 222 223 221 222 220 192 190 190 195 195 201 211 216 226 229 231 237 239 237 237 239 236 231 235 242 243 235 225 209 219 228 224 225 236 245 239
50 45 37 45 51 59 59 51 46 41 35 33 33 36 24 2 351 357 331 286 257 233 217 210 207 199 192 192 193 194 195 197 195 195 197 198 196 198 199 200 204 206 210 213 216 219 222 226 222 222 225 221 216 216 196 187 194 195 199 200 213 216 221 225 229 234 236 240 239 237 242 232 227 235 239 239 236 223 219 228 226 226 229 302 46
50 48 44 43 46 47 52 43 32 28 19 23 35 41 26 2 18 10 318 297 301 282 234 209 192 195 197 194 193 195 196 195 194 192 195 199 196 196 197 199 201 203 206 211 213 218 222 225 225 222 221 218 205 200 197 192 193 198 199 202 210 218 213 219 228 235 236 240 242 240 242 233 228 232 235 238 239 236 227 228 236 230 210 80 220
38 43 40 43 39 35 40 43 32 31 21 15 15 21 23 26 17 335 310 312 308 302 252 209 203 192 191 192 193 189 189 190 191 190 191 195 192 193 195 194 198 202 206 210 213 215 220 226 226 221 214 206 201 200 195 190 199 199 202 203 210 216 213 216 226 234 230 236 236 240 243 239 233 234 236 236 238 238 235 232 237 235 159 169 230
44 56 56 52 49 38 33 31 27 22 19 16 23 9 4 4 343 317 318 323 333 325 287 204 204 205 192 187 186 187 185 185 185 184 189 190 190 192 190 192 194 198 201 209 210 210 217 223 226 223 213 203 199 195 203 196 197 204 203 203 210 219 217 215 221 233 230 231 239 242 275 308 292 273 263 257 253 251 249 246 243 262 111 176 236
24 24 35 56 58 60 50 33 21 15 7 6 13 12 356 353 326 328 331 329 331 335 310 212 201 193 188 184 174 175 179 177 178 177 181 185 187 183 188 191 191 197 200 204 205 200 211 218 220 222 214 210 201 201 209 211 208 204 206 209 214 218 228 236 249 251 259 282 354 333 325 322 316 305 279 271 271 264 257 263 268 128 160 200 227
19 14 11 30 35 39 41 31 14 11 2 360 349 1 348 318 313 320 328 328 338 344 330 264 204 181 173 162 162 167 170 170 168 177 180 180 177 179 185 182 186 194 195 197 199 197 207 211 216 218 213 210 208 203 178 45 64 169 199 216 221 229 235 237 244 274 280 288 290 292 295 296 296 296 303 293 286 271 265 252 246 180 182 202 221
15 10 9 15 38 31 22 21 13 356 356 345 338 335 326 317 319 312 325 331 336 345 336 311 216 180 162 159 157 157 154 155 162 163 170 171 172 176 179 177 184 190 192 198 196 194 203 205 216 217 212 211 207 134 86 82 60 122 131 175 196 217 219 215 228 248 263 268 271 272 276 279 280 279 273 263 261 272 276 265 243 190 194 204 215
6 5 8 5 36 37 20 20 7 348 345 343 338 331 324 329 321 335 345 340 336 332 332 314 233 173 164 161 159 156 148 151 152 146 151 163 174 176 174 179 186 190 190 202 196 199 202 203 213 211 208 209 153 113 138 141 121 103 113 115 154 167 171 186 209 226 234 259 273 298 299 306 307 305 295 297 285 278 269 274 265 237 215 214 222
1 355 3 1 6 34 27 24 9 357 5 2 8 355 346 341 334 337 5 12 349 337 343 347 336 157 159 157 154 150 149 141 102 74 56 38 7 353 348 90 28 358 246 199 196 195 202 203 196 195 191 150 128 169 191 135 98 60 99 144 158 154 149 161 67 16 305 313 352 321 317 317 318 308 309 304 310 305 298 290 288 280 252 233 225
356 356 358 359 2 42 37 36 15 11 16 11 15 2 350 345 352 346 351 30 346 8 14 355 352 26 121 142 142 143 142 129 119 114 98 73 54 55 36 47 24 2 23 17 95 183 164 135 106 49 348 193 187 163 120 109 96 79 73 77 85 79 67 76 37 59 94 51 27 355 332 332 326 333 319 316 314 316 314 310 306 304 298 287 270
356 359 351 357 358 40 64 49 21 8 19 9 10 2 354 357 1 351 351 5 19 48 43 15 15 17 31 114 130 137 140 126 122 116 111 108 92 51 44 42 49 59 63 60 62 65 78 100 123 106 48 59 89 107 114 114 105 97 94 99 106 122 126 139 162 112 63 63 44 29 344 331 322 321 314 308 309 311 312 309 308 309 305 301 303